GW4755 Weather Reports


Display with metric or nautical units.
time (UTC)temp
F
wind
direction
speed
MPH
gust
MPH
rain 1hr
in
rain 24hr
in
rain mn
in
humidity
%
barometer
mb
20260503055003 52 0 0.0 0.0 0.00 0.00 0.00 87 998.6
20260503052003 52 355 0.0 0.0 0.00 0.00 0.00 87 998.6
20260503050503 52 356 0.0 0.0 0.00 0.00 0.00 87 998.6
20260503045003 52 356 0.0 0.0 0.00 0.00 0.00 87 998.6
20260503043003 52 356 0.0 0.0 0.00 0.00 0.00 87 998.6
20260503041503 52 28 0.0 0.0 0.00 0.00 0.00 86 998.6
20260503040004 52 27 0.0 0.0 0.00 0.00 0.00 86 998.3
20260503034503 52 15 0.0 0.0 0.00 0.00 0.00 86 998.3
20260503033004 52 1 0.0 0.0 0.00 0.00 0.00 86 998.0
20260503031503 52 1 0.0 0.0 0.00 0.00 0.00 86 998.0
20260503024504 53 343 0.0 0.0 0.00 0.00 0.00 85 998.0
20260503023004 53 20 0.0 0.0 0.00 0.00 0.00 85 998.0
20260503022004 53 22 0.0 0.0 0.00 0.00 0.00 85 998.0
20260503020503 53 36 0.0 0.0 0.00 0.00 0.00 84 998.0
20260503015003 53 42 0.0 0.0 0.00 0.00 0.00 84 998.0
20260503013503 54 44 0.0 1.0 0.00 0.00 0.00 84 998.3
20260503012003 54 14 0.0 1.0 0.00 0.00 0.00 82 998.3
20260503003503 54 51 2.0 3.0 0.00 0.00 0.00 83 998.3
20260503002004 55 16 0.0 2.0 0.00 0.00 0.00 82 998.3
20260502235503 56 10 3.0 4.0 0.00 0.00 0.00 80 998.3
20260502234003 57 27 0.0 6.0 0.00 0.00 0.00 80 998.6
20260502232503 57 14 1.0 2.0 0.00 0.00 0.00 79 998.6
20260502231003 57 37 0.0 3.0 0.00 0.00 0.00 79 998.6
20260502224004 57 349 1.0 1.0 0.00 0.00 0.00 81 999.0
20260502214504 56 349 1.0 3.0 0.00 0.00 0.00 83 999.7
20260502213004 55 19 0.0 2.0 0.00 0.00 0.00 83 999.7
20260502211502 55 17 0.0 5.0 0.00 0.00 0.00 84 1000.0
20260502210004 55 2 0.0 2.0 0.00 0.00 0.00 84 1000.0
20260502204503 55 27 0.0 3.0 0.00 0.00 0.00 85 1000.0
20260502201503 54 20 2.0 2.0 0.00 0.00 0.00 87 1000.3
20260502200005 54 19 0.0 2.0 0.00 0.00 0.00 87 1000.3
20260502194503 54 16 1.0 3.0 0.00 0.00 0.00 87 1000.3
20260502191504 54 0 0.0 3.0 0.00 0.00 0.00 87 1000.3
20260502185504 54 5 0.0 0.0 0.00 0.00 0.00 87 1000.3
20260502184003 54 20 0.0 0.0 0.00 0.00 0.00 88 1000.3
20260502182503 54 28 0.0 0.0 0.00 0.00 0.00 88 1000.3
20260502181003 54 349 0.0 0.0 0.00 0.00 0.00 88 1000.3
20260502161504 51 0 0.0 0.0 0.00 0.00 0.00 92 1000.0
20260502151505 51 337 0.0 0.0 0.00 0.00 0.00 92 999.7
20260502130504 51 357 0.0 0.0 0.00 0.00 0.00 92 999.0
20260502123504 50 357 0.0 0.0 0.00 0.00 0.00 92 999.0
20260502122003 50 357 0.0 0.0 0.00 0.00 0.00 92 998.6
20260502120505 50 353 0.0 0.0 0.00 0.00 0.00 92 998.6
20260502115004 50 11 0.0 0.0 0.00 0.00 0.00 92 998.6
20260502113504 50 42 0.0 0.0 0.00 0.00 0.00 92 999.0
20260502112004 50 0 0.0 0.0 0.00 0.00 0.00 91 998.6
20260502110503 50 338 0.0 0.0 0.00 0.00 0.00 92 998.6
20260502105003 50 359 0.0 0.0 0.00 0.00 0.00 92 999.0
20260502103503 50 334 0.0 0.0 0.00 0.00 0.00 92 999.0
20260502100504 50 305 0.0 0.0 0.00 0.00 0.00 92 999.0
20260502091003 50 17 0.0 0.0 0.00 0.00 0.00 91 999.3
20260502065503 52 5 0.0 0.0 0.00 0.00 0.00 90 999.3